Change the Weather History Date:

Saturday, March 16, 2013

  Actual Average Record
Temperature  
Mean Temperature 52 °F 42 °F  
Max Temperature 70 °F 53 °F 75 °F (2002)
Min Temperature 34 °F 30 °F 9 °F (1993)
Degree Days  
Heating Degree Days 13 24  
Month to date heating degree days 460 411  
Since 1 July heating degree days 4320 4459  
Cooling Degree Days 0 0  
Month to date cooling degree days 0 0  
Year to date cooling degree days 0 0  
Growing Degree Days 5 (Base 50)    
Moisture  
Dew Point 46 °F    
Average Humidity 72    
Maximum Humidity 100    
Minimum Humidity 44    
Precipitation  
Precipitation 0.16 in 0.12 in 2.21 in (2007)
Month to date precipitation 1.57 1.74  
Year to date precipitation 10.67 7.63  
Snow  
Snow 0.00 in - - ()
Month to date snowfall 0.5  
Since 1 July snowfall 18.1  
Snow Depth 0.00 in    
Sea Level Pressure  
Sea Level Pressure 29.79 in    
Wind  
Wind Speed 6 mph (WSW)    
Max Wind Speed 16 mph    
Max Gust Speed 27 mph    
Visibility 10 miles    
Events Rain , Thunderstorm    
T = Trace of Precipitation, MM = Missing Value Source: NWS Daily Summary

Daily Weather History Graph

Daily Weather History Graph

Search for Another Location

Airport or City:

Trip Planner

Search our weather history database for the weather conditions in past years. The results will help you decide how hot, cold, wet, or windy it might be!

Date:

Astronomy

Mar. 16, 2013 Rise Set
Actual Time 7:30 AM EDT 7:30 PM EDT
Civil Twilight 7:04 AM EDT 7:56 PM EDT
Nautical Twilight 6:34 AM EDT 8:26 PM EDT
Astronomical Twilight 6:04 AM EDT 8:56 PM EDT
Moon 10:06 AM EDT (3/16) No Moon Set
Length of Visible Light 12h 51m
Length of Day
11h 59m
Waxing Crescent, 23% of the Moon is Illuminated
Mar 16
Waxing Crescent
Mar 19
First Quarter
Mar 27
Full
Apr 3
Last Quarter
Apr 10
New

Hourly Weather History & Observations

Time (EDT) Temp. Windchill Dew Point Humidity Pressure Visibility Wind Dir Wind Speed Gust Speed Precip Events Conditions
12:15 AM 46.4 °F 45.2 °F 37.4 °F 71% 29.88 in 10.0 mi West 3.5 mph - N/A   Clear
12:35 AM 46.4 °F 44.3 °F 37.4 °F 71% 29.88 in 10.0 mi West 4.6 mph - N/A   Clear
12:55 AM 44.6 °F 43.1 °F 37.4 °F 76% 29.88 in 10.0 mi West 3.5 mph - N/A   Clear
1:15 AM 42.8 °F - 37.4 °F 81% 29.87 in 10.0 mi Calm Calm - N/A   Clear
1:35 AM 42.8 °F - 37.4 °F 81% 29.86 in 10.0 mi Calm Calm - N/A   Clear
1:55 AM 39.2 °F 37.0 °F 35.6 °F 87% 29.86 in 10.0 mi SW 3.5 mph - N/A   Clear
2:15 AM 39.2 °F - 35.6 °F 87% 29.85 in 10.0 mi Calm Calm - N/A   Clear
2:35 AM 39.2 °F 37.0 °F 35.6 °F 87% 29.85 in 10.0 mi NNW 3.5 mph - N/A   Clear
2:55 AM 37.4 °F - 35.6 °F 93% 29.84 in 10.0 mi Calm Calm - N/A   Clear
3:15 AM 37.4 °F - 35.6 °F 93% 29.84 in 10.0 mi Calm Calm - N/A   Clear
3:35 AM 37.4 °F - 35.6 °F 93% 29.83 in 10.0 mi Calm Calm - N/A   Scattered Clouds
3:55 AM 37.4 °F - 35.6 °F 93% 29.82 in 10.0 mi Calm Calm - N/A   Mostly Cloudy
4:15 AM 37.4 °F - 35.6 °F 93% 29.81 in 10.0 mi Calm Calm - N/A   Mostly Cloudy
4:35 AM 41.0 °F - 37.4 °F 87% 29.80 in 10.0 mi Calm Calm - N/A Thunderstorm Overcast
4:55 AM 41.0 °F - 37.4 °F 87% 29.80 in 10.0 mi Calm Calm - N/A   Overcast
5:15 AM 39.2 °F - 37.4 °F 93% 29.80 in 10.0 mi Calm Calm - N/A   Mostly Cloudy
5:35 AM 41.0 °F - 37.4 °F 87% 29.80 in 10.0 mi Calm Calm - N/A   Scattered Clouds
5:55 AM 39.2 °F - 37.4 °F 93% 29.79 in 10.0 mi Calm Calm - N/A   Clear
6:15 AM 37.4 °F - 37.4 °F 100% 29.80 in 10.0 mi Calm Calm - N/A   Mostly Cloudy
6:35 AM 42.8 °F - 41.0 °F 93% 29.81 in 7.0 mi Calm Calm - N/A Rain Rain
6:55 AM 42.8 °F - 42.8 °F 100% 29.80 in 10.0 mi Calm Calm - N/A   Overcast
7:15 AM 44.6 °F - 42.8 °F 93% 29.81 in 10.0 mi Calm Calm - N/A   Overcast
7:35 AM 46.4 °F 44.3 °F 44.6 °F 93% 29.81 in 10.0 mi West 4.6 mph - N/A   Drizzle
7:55 AM 48.2 °F - 44.6 °F 87% 29.81 in 10.0 mi WNW 5.8 mph - N/A   Overcast
8:15 AM 48.2 °F - 44.6 °F 87% 29.81 in 10.0 mi WNW 3.5 mph - N/A   Overcast
8:35 AM 48.2 °F - 44.6 °F 87% 29.82 in 10.0 mi West 4.6 mph - N/A   Overcast
8:55 AM 50.0 °F - 46.4 °F 87% 29.82 in 10.0 mi Calm Calm - N/A   Overcast
9:15 AM 51.8 °F - 46.4 °F 82% 29.81 in 10.0 mi Calm Calm - N/A   Scattered Clouds
9:55 AM 59.0 °F - 48.2 °F 67% 29.80 in 10.0 mi West 5.8 mph - N/A   Clear
10:15 AM 60.8 °F - 50.0 °F 68% 29.79 in 10.0 mi West 6.9 mph - N/A   Clear
10:35 AM 62.6 °F - 50.0 °F 63% 29.78 in 10.0 mi West 12.7 mph 19.6 mph N/A   Clear
10:55 AM 64.4 °F - 48.2 °F 56% 29.77 in 10.0 mi WSW 8.1 mph 21.9 mph N/A   Clear
11:15 AM 64.4 °F - 48.2 °F 56% 29.76 in 10.0 mi SW 12.7 mph 20.7 mph N/A   Clear
11:35 AM 66.2 °F - 48.2 °F 52% 29.76 in 10.0 mi SW 11.5 mph 19.6 mph N/A   Clear
11:55 AM 68.0 °F - 48.2 °F 49% 29.75 in 10.0 mi West 10.4 mph 20.7 mph N/A   Scattered Clouds
12:15 PM 68.0 °F - 48.2 °F 49% 29.75 in 10.0 mi SW 15.0 mph 24.2 mph N/A   Clear
12:35 PM 69.8 °F - 48.2 °F 46% 29.74 in 10.0 mi WSW 12.7 mph 21.9 mph N/A   Clear
12:55 PM 69.8 °F - 48.2 °F 46% 29.74 in 10.0 mi West 12.7 mph 20.7 mph N/A   Clear
1:15 PM 69.8 °F - 48.2 °F 46% 29.74 in 10.0 mi WSW 10.4 mph 23.0 mph N/A   Clear
1:35 PM 71.6 °F - 50.0 °F 46% 29.74 in 10.0 mi WSW 10.4 mph 19.6 mph N/A   Scattered Clouds
1:55 PM 71.6 °F - 48.2 °F 43% 29.73 in 10.0 mi SW 13.8 mph 25.3 mph N/A   Clear
2:15 PM 71.6 °F - 48.2 °F 43% 29.73 in 10.0 mi WSW 12.7 mph 24.2 mph N/A   Clear
2:35 PM 71.6 °F - 48.2 °F 43% 29.72 in 10.0 mi SW 15.0 mph 23.0 mph N/A   Clear
2:55 PM 71.6 °F - 50.0 °F 46% 29.71 in 10.0 mi WSW 13.8 mph 26.5 mph N/A   Clear
3:15 PM 73.4 °F - 50.0 °F 44% 29.70 in 10.0 mi SW 13.8 mph 23.0 mph N/A   Clear
3:35 PM 73.4 °F - 50.0 °F 44% 29.68 in 10.0 mi SSW 9.2 mph 23.0 mph N/A   Clear
3:55 PM 73.4 °F - 50.0 °F 44% 29.67 in 10.0 mi WSW 16.1 mph 23.0 mph N/A   Clear
4:15 PM 73.4 °F - 50.0 °F 44% 29.67 in 10.0 mi West 15.0 mph 24.2 mph N/A   Scattered Clouds
4:35 PM 71.6 °F - 50.0 °F 46% 29.67 in 10.0 mi SW 11.5 mph 24.2 mph N/A   Scattered Clouds
4:55 PM 71.6 °F - 50.0 °F 46% 29.67 in 10.0 mi WSW 11.5 mph 25.3 mph N/A   Mostly Cloudy
5:15 PM 69.8 °F - 51.8 °F 53% 29.71 in 7.0 mi WSW 13.8 mph 25.3 mph 0.01 in Rain Rain
5:35 PM 59.0 °F - 55.4 °F 88% 29.74 in 10.0 mi West 5.8 mph - 0.10 in Rain , Thunderstorm Light Thunderstorms and Rain
5:55 PM 60.8 °F - 57.2 °F 88% 29.76 in 10.0 mi WSW 5.8 mph - 0.10 in   Mostly Cloudy
6:15 PM 60.8 °F - 57.2 °F 88% 29.76 in 10.0 mi WSW 5.8 mph - N/A   Overcast
6:35 PM 60.8 °F - 55.4 °F 82% 29.77 in 10.0 mi WSW 11.5 mph - N/A   Scattered Clouds
6:55 PM 60.8 °F - 53.6 °F 77% 29.78 in 10.0 mi WSW 8.1 mph 17.3 mph N/A   Clear
7:15 PM 60.8 °F - 53.6 °F 77% 29.78 in 10.0 mi WSW 9.2 mph 16.1 mph N/A   Scattered Clouds
7:35 PM 60.8 °F - 53.6 °F 77% 29.79 in 10.0 mi WSW 10.4 mph 20.7 mph N/A   Clear
7:55 PM 60.8 °F - 53.6 °F 77% 29.80 in 10.0 mi WSW 11.5 mph 17.3 mph N/A Thunderstorm Clear
8:15 PM 60.8 °F - 53.6 °F 77% 29.80 in 10.0 mi West 10.4 mph 16.1 mph N/A   Clear
8:35 PM 59.0 °F - 53.6 °F 82% 29.81 in 10.0 mi West 8.1 mph - N/A   Clear
8:55 PM 57.2 °F - 53.6 °F 88% 29.82 in 10.0 mi West 8.1 mph - N/A   Clear
9:15 PM 57.2 °F - 53.6 °F 88% 29.83 in 10.0 mi West 4.6 mph - N/A   Clear
9:35 PM 57.2 °F - 53.6 °F 88% 29.84 in 10.0 mi West 3.5 mph - N/A   Clear
9:55 PM 55.4 °F - 51.8 °F 88% 29.84 in 10.0 mi West 3.5 mph - N/A   Clear
10:15 PM 55.4 °F - 51.8 °F 88% 29.86 in 10.0 mi West 5.8 mph - N/A   Scattered Clouds
10:35 PM 55.4 °F - 51.8 °F 88% 29.87 in 10.0 mi West 3.5 mph - N/A   Clear
10:55 PM 55.4 °F - 51.8 °F 88% 29.87 in 10.0 mi West 4.6 mph - N/A   Clear
11:15 PM 55.4 °F - 51.8 °F 88% 29.87 in 10.0 mi West 4.6 mph - N/A   Clear
11:35 PM 53.6 °F - 51.8 °F 94% 29.88 in 10.0 mi West 4.6 mph - N/A   Clear
11:55 PM 55.4 °F - 51.8 °F 88% 29.89 in 10.0 mi West 6.9 mph - N/A   Clear